GFSMA_925_rhum_024.txt.gz
RH
67 54 50 47 44 43 42 40 38 39 41 43 43 41 40 38 37 36 36 34 33 44 67 85 80 78 78 78 74 70 71 78 73 71 76 81 79 77 77 75 74 72 73
61 55 50 47 45 42 41 41 43 44 45 46 44 42 40 38 38 36 34 36 47 63 80 75 71 70 74 74 70 65 76 70 67 66 67 80 81 80 76 72 68 68 70
57 52 50 47 44 43 42 44 47 49 49 48 46 43 40 38 36 33 32 35 62 72 72 74 76 76 73 69 66 63 64 64 63 59 59 72 72 73 70 70 70 69 69
56 54 51 43 40 42 46 48 49 48 47 48 48 44 39 36 34 33 31 31 58 71 63 65 61 51 50 51 51 50 52 52 53 53 61 64 61 60 61 67 67 67 68
60 52 43 40 45 47 48 49 49 45 43 46 46 44 39 37 36 34 34 33 32 30 30 30 32 34 48 55 53 49 47 49 49 50 58 55 53 56 57 56 60 62 63
55 46 43 46 50 49 49 46 42 44 46 48 46 44 42 40 39 36 35 33 32 32 30 30 29 30 36 34 43 50 47 48 48 48 48 50 54 54 53 54 53 54 57
50 47 48 50 50 46 43 44 44 46 47 49 51 51 47 45 42 37 35 36 36 34 34 33 32 32 32 32 34 49 48 46 46 46 46 48 47 50 52 52 53 54 56
51 50 49 46 42 35 32 33 36 46 55 55 53 58 72 60 51 41 39 39 37 36 36 35 33 36 37 37 37 38 47 47 44 43 44 44 45 46 50 52 53 53 54
50 48 41 30 26 23 22 24 31 42 52 54 54 55 72 73 64 54 42 40 38 39 32 33 32 37 32 39 39 38 37 38 47 48 45 45 45 47 51 53 54 54 56
46 37 30 24 22 21 25 33 43 46 57 59 55 54 55 54 69 70 48 44 42 40 38 35 35 36 38 40 39 37 41 50 49 63 56 53 53 54 56 55 55 57 57
35 30 26 25 20 19 22 39 51 56 55 53 58 58 57 57 57 61 66 50 45 44 44 41 41 42 44 40 38 40 60 65 60 68 72 70 66 63 61 59 59 56 56
32 30 28 22 18 33 44 52 54 51 52 48 49 52 55 58 57 58 71 64 61 52 47 46 48 48 46 47 50 52 54 78 77 75 74 72 70 66 62 59 55 54 56
33 31 28 25 37 44 46 56 54 57 56 51 52 56 56 58 62 59 62 65 66 56 52 50 51 50 50 52 52 49 46 46 51 70 70 69 69 69 63 60 62 62 61
31 30 24 24 44 37 26 46 60 61 61 60 63 64 61 61 66 65 60 60 74 69 59 63 56 54 54 49 44 38 34 36 49 69 70 70 68 70 69 68 66 68 66
30 29 28 41 28 27 33 42 51 64 69 64 59 68 68 63 65 62 60 62 65 87 82 62 61 56 49 43 42 37 43 45 64 73 74 74 75 73 71 75 76 71 70
34 31 35 28 32 40 39 43 47 54 57 49 47 50 52 60 64 64 70 70 63 66 78 57 53 51 47 49 46 39 50 54 59 60 80 81 81 77 76 74 72 70 70
30 30 28 32 39 40 43 48 50 50 50 48 48 50 53 62 66 65 65 63 61 60 65 56 52 50 53 56 40 44 51 59 61 61 84 82 80 76 72 73 72 87 82
30 33 32 37 39 42 42 48 51 53 50 49 48 51 52 60 60 61 63 63 58 55 55 58 55 56 60 50 41 54 60 62 62 56 85 76 76 77 77 80 82 83 85
36 35 38 41 42 46 53 45 51 52 51 50 50 52 50 58 62 62 60 58 55 51 53 60 64 69 65 44 50 64 70 65 71 77 71 77 67 69 86 88 86 84 82
37 40 42 44 51 64 54 43 43 44 46 49 51 53 54 60 60 54 55 49 51 53 55 62 69 67 63 48 64 80 74 80 76 64 63 69 67 61 61 64 78 85 88
41 42 45 50 78 83 56 50 48 46 48 49 53 54 56 60 51 49 49 52 53 54 62 67 65 69 70 65 83 78 90 92 90 74 79 72 62 60 59 65 64 63 62
47 50 61 83 79 73 56 52 50 56 57 54 55 56 56 50 67 52 54 56 57 59 63 63 66 74 64 72 78 92 97 92 80 79 88 81 83 66 64 65 69 78 95
66 84 85 88 80 67 55 49 48 50 49 56 59 58 54 65 62 55 58 61 64 63 61 64 73 60 68 74 90 96 96 97 93 90 94 91 78 72 65 65 67 84 99
86 92 92 88 71 58 56 55 51 49 53 58 64 61 55 69 64 58 61 65 66 63 63 69 66 57 71 82 95 96 92 84 92 90 87 89 82 82 77 60 64 74 75
98 92 93 88 91 60 59 57 54 55 56 62 67 60 64 68 62 59 62 66 66 64 65 72 61 74 87 88 82 91 75 93 91 84 81 95 88 86 81 66 60 70 62
92 86 98 91 65 59 54 60 62 62 66 67 64 61 63 65 58 58 62 64 71 65 69 67 66 72 78 79 78 80 71 94 96 81 79 89 86 95 83 70 64 68 60

GFSMA_925_rhum_027.txt.gz
RH
59 60 50 44 43 41 41 41 39 39 40 42 42 42 40 38 38 38 50 35 35 44 78 86 79 81 78 74 70 72 77 69 67 66 71 84 82 77 75 73 71 68 68
61 52 48 46 46 43 41 40 40 43 44 45 44 41 39 40 39 36 44 56 53 75 79 76 73 74 81 74 68 67 71 68 65 61 60 73 71 72 69 69 68 66 67
59 54 50 48 44 42 40 42 45 48 48 47 44 42 42 41 38 34 35 50 64 69 76 81 77 70 68 64 61 56 54 55 55 56 56 66 66 63 62 62 62 64 66
61 53 49 47 45 42 44 47 49 49 48 48 47 46 41 36 34 32 35 54 64 61 64 66 61 54 56 55 54 52 53 52 54 53 54 62 58 56 59 58 56 57 59
55 52 51 45 43 47 47 47 48 47 54 54 52 50 41 43 38 36 33 33 32 32 36 30 30 30 34 44 53 49 48 50 52 53 52 53 54 58 58 55 53 54 53
58 53 46 44 47 48 49 48 38 39 49 54 47 52 51 44 40 39 37 35 34 36 34 31 36 37 31 33 44 47 48 50 51 52 53 52 53 55 52 52 52 54 56
58 49 46 48 50 50 42 37 37 44 58 52 54 54 54 50 44 42 39 43 42 39 35 40 38 36 36 33 34 50 47 46 47 48 48 49 50 49 49 50 51 54 54
55 50 49 50 48 39 32 32 40 59 60 53 52 53 47 51 52 48 47 46 43 47 46 41 40 45 45 40 46 37 45 46 46 47 47 50 50 50 49 49 53 54 55
54 51 50 46 35 25 21 23 30 47 53 55 55 45 47 41 52 57 53 50 51 50 48 43 42 43 43 47 44 45 38 38 59 56 54 54 54 53 53 54 55 55 56
53 51 44 31 23 20 20 28 36 40 52 56 60 56 55 58 43 41 52 52 52 51 52 49 47 48 44 51 47 44 51 62 61 74 67 63 60 58 56 55 55 56 66
52 45 35 27 20 16 27 41 48 45 43 44 55 61 64 61 61 47 38 40 48 49 51 52 51 52 54 54 56 61 50 52 64 80 78 72 66 61 59 58 56 56 57
43 36 30 24 20 24 50 62 48 42 44 50 57 57 50 45 44 47 45 45 49 49 54 53 54 56 60 57 52 50 50 48 42 60 67 67 65 64 62 60 60 59 57
44 36 32 28 19 48 64 44 38 46 47 51 61 59 59 56 58 57 56 46 51 49 54 55 55 59 60 60 61 48 54 38 29 41 64 67 69 70 69 66 65 63 62
49 42 35 25 32 48 40 46 49 55 47 57 59 63 66 67 69 65 58 54 51 47 52 59 60 60 62 60 55 44 52 55 36 52 73 74 72 73 73 70 68 66 66
52 42 34 29 37 67 41 51 66 48 57 64 64 63 73 76 76 73 71 64 56 59 44 41 55 58 56 54 52 58 53 51 50 72 74 76 78 77 75 72 72 71 70
49 40 34 32 64 46 47 45 39 42 57 65 62 52 65 71 69 71 65 68 70 62 53 41 45 52 55 50 53 59 47 53 61 61 72 79 80 81 77 75 75 72 72
52 43 33 53 37 40 42 36 34 44 49 58 50 48 56 56 66 70 75 74 67 64 52 43 50 53 56 54 55 48 48 52 53 61 71 77 83 83 79 77 76 77 76
59 38 37 34 35 38 38 38 55 52 51 59 56 56 60 64 70 73 73 68 64 60 57 46 45 51 54 58 56 51 50 56 58 58 69 81 83 87 87 86 86 85 83
48 40 37 36 40 40 42 51 63 54 54 52 55 62 60 69 68 67 68 66 63 61 58 55 50 51 59 56 52 46 53 56 55 60 66 73 80 82 86 89 92 91 91
42 40 41 47 43 50 60 78 80 66 57 54 53 54 55 60 66 66 68 65 63 58 55 55 52 52 52 51 53 51 51 52 54 61 67 73 78 79 83 89 74 75 91
41 39 39 45 54 81 88 87 76 70 65 63 54 52 53 53 55 63 66 62 57 55 55 54 53 50 48 47 43 55 59 58 57 57 65 63 61 62 64 70 77 83 93
45 48 52 53 76 86 78 94 72 70 60 58 66 69 59 55 58 61 54 58 54 58 58 56 52 52 51 49 54 62 67 62 55 53 62 60 58 60 62 65 69 86 95
55 60 72 89 97 90 90 88 71 59 62 65 69 69 69 63 59 60 66 58 58 58 60 60 61 57 60 53 60 66 62 62 60 59 65 60 57 58 58 58 65 83 77
82 87 96 99 89 93 96 99 86 63 70 66 66 69 72 67 62 61 66 67 70 75 77 73 67 65 62 59 69 74 76 72 61 58 57 58 58 63 64 66 71 68 71
98 99 99 92 98 98 99 77 61 65 74 68 65 63 74 71 65 63 67 69 67 66 68 64 64 68 58 63 82 81 75 64 65 58 55 64 59 62 67 68 70 71 76
91 92 98 99 100 99 76 66 60 67 70 78 65 63 66 70 61 67 67 66 70 59 63 68 73 69 71 79 86 89 73 72 66 65 52 70 68 69 68 59 68 75 81

GFSMA_925_rhum_030.txt.gz
RH
65 62 61 54 51 52 52 52 52 48 50 49 47 44 41 41 40 36 44 39 42 65 82 86 86 82 77 73 70 76 72 69 66 63 62 74 72 71 68 69 68 69 69
68 63 59 54 53 50 51 48 46 45 44 44 47 44 40 38 40 40 39 60 64 70 77 77 78 85 79 72 68 67 64 61 60 58 59 60 68 68 66 65 65 64 64
68 62 54 55 55 55 55 54 51 50 45 42 43 40 38 39 37 43 40 41 51 66 68 76 73 66 64 62 59 58 56 57 57 58 57 59 68 63 58 62 60 58 58
68 64 59 58 56 55 50 50 48 46 43 38 38 35 36 36 42 42 42 41 41 39 55 65 62 58 57 61 59 53 52 53 54 56 56 55 59 57 60 62 59 56 56
67 62 58 61 62 54 54 50 50 43 40 36 36 36 38 36 41 34 39 41 40 36 33 42 31 30 30 30 43 44 48 52 55 57 58 60 60 60 60 61 56 54 55
66 64 63 68 58 52 53 50 45 40 37 35 30 37 41 40 39 40 40 37 40 43 40 39 36 36 34 30 45 46 49 51 53 54 54 54 54 55 56 54 53 54 54
68 66 63 65 55 50 49 51 43 44 40 42 41 44 45 50 46 40 41 38 40 43 44 39 38 34 33 36 38 49 49 49 50 51 53 53 54 55 55 54 54 52 54
68 68 63 59 54 54 54 48 42 38 38 46 44 42 40 42 46 46 40 42 47 44 40 42 43 40 39 34 40 35 47 56 56 58 58 58 59 58 56 55 55 57 57
69 66 65 57 58 51 46 45 43 39 41 49 53 47 40 34 35 39 49 45 46 46 42 41 43 44 42 43 43 45 55 49 63 68 66 64 63 60 58 57 56 56 56
71 63 63 60 57 42 38 39 41 47 50 53 54 49 47 37 27 28 42 46 49 45 42 45 41 43 46 46 48 55 61 55 54 74 68 65 64 62 61 59 57 57 57
70 60 59 57 50 42 41 40 50 62 63 50 47 47 44 40 40 36 34 26 32 36 39 42 44 44 43 47 50 50 55 49 47 64 60 58 60 61 62 61 59 58 57
66 61 56 55 50 43 49 60 52 66 59 56 47 40 34 37 36 36 33 30 31 35 38 41 41 42 44 48 51 51 55 57 47 46 60 60 62 64 66 65 64 61 59
63 61 58 56 50 44 56 52 57 69 63 55 46 40 47 44 38 36 36 35 35 35 37 41 43 44 44 44 46 50 60 50 54 62 64 65 70 72 72 70 67 65 63
64 64 60 64 56 43 48 59 75 71 63 54 54 55 46 46 45 44 42 40 39 32 31 34 39 42 44 45 45 48 48 45 52 58 63 72 73 74 75 75 72 70 67
69 62 62 68 62 52 50 74 72 65 62 63 61 61 54 46 50 51 48 45 42 46 35 31 33 36 43 46 45 45 48 49 50 51 67 74 77 77 77 77 75 73 71
75 75 74 59 63 49 61 79 65 64 60 65 63 56 53 48 46 48 43 42 44 44 44 37 33 36 43 46 45 43 48 49 44 46 59 67 71 76 80 79 77 76 74
76 74 64 65 80 52 79 68 64 52 66 65 60 54 51 46 44 44 45 45 46 45 42 38 36 34 43 49 46 44 44 39 35 39 52 62 71 77 83 84 84 82 80
83 72 68 84 51 65 60 62 52 60 67 76 59 54 49 45 50 50 48 48 48 45 44 42 41 39 40 42 45 48 42 36 38 41 49 60 68 75 82 86 85 87 87
84 80 86 62 59 57 54 53 65 72 87 78 54 50 50 50 51 52 51 50 46 45 45 46 44 42 41 39 40 40 38 37 37 37 40 46 59 68 75 80 83 88 91
91 83 68 58 57 55 52 67 83 85 90 68 62 59 54 52 51 53 52 50 50 49 49 46 43 41 37 34 38 37 30 34 36 39 41 45 52 56 65 67 72 77 85
78 70 60 54 64 58 86 90 98 94 84 67 62 61 58 59 60 57 52 50 52 51 51 45 42 40 35 33 33 34 36 39 41 40 39 42 42 44 44 47 54 64 68
71 58 56 57 75 97 91 91 94 99 80 70 64 58 56 57 67 68 64 57 56 56 55 50 46 39 36 36 37 37 40 44 41 38 42 44 44 42 42 44 48 51 67
60 58 78 85 90 77 79 98 98 96 98 85 70 62 57 51 53 64 71 67 63 57 61 53 50 42 41 42 44 40 42 44 47 46 44 42 41 41 43 43 50 57 75
64 77 90 82 83 89 98 99 100 99 95 68 60 55 52 52 50 55 63 66 66 67 69 61 58 47 44 48 48 45 52 56 52 46 41 42 41 44 47 49 54 63 69
85 90 88 88 94 98 99 100 100 82 70 62 58 56 54 54 54 60 65 62 63 66 62 65 63 57 56 57 56 55 61 56 57 47 40 44 45 48 50 53 57 63 71
92 98 100 100 98 98 93 87 78 76 72 66 65 60 59 66 66 67 69 66 68 65 58 56 64 69 67 72 70 73 62 59 55 54 43 49 48 49 53 53 58 61 68

GFSMA_925_rhum_033.txt.gz
RH
58 54 54 54 51 54 53 51 54 46 47 45 42 37 35 37 35 30 61 27 39 70 91 88 85 84 77 72 75 75 72 68 65 62 61 62 71 71 69 67 68 66 64
60 57 61 54 51 50 50 47 43 43 38 39 42 36 34 32 35 36 38 51 48 67 81 81 86 84 78 72 69 65 60 59 60 60 61 60 67 69 64 62 64 62 61
64 60 56 53 52 50 50 48 46 43 39 35 36 36 35 34 36 37 34 41 57 47 61 74 73 71 68 65 63 61 58 58 58 59 59 59 58 62 61 62 64 62 59
69 65 55 55 54 54 51 44 43 42 38 33 33 31 33 34 38 38 37 37 36 50 47 58 65 60 61 59 56 52 50 53 57 59 61 64 66 68 67 67 71 65 58
66 64 57 58 59 53 48 46 44 40 38 33 34 35 37 36 39 32 36 39 40 32 35 40 36 33 31 31 41 46 51 54 56 59 59 59 59 60 60 62 62 60 55
66 68 57 61 62 53 50 46 44 38 35 34 28 31 41 41 39 39 39 38 36 41 40 39 40 45 37 34 32 41 51 52 54 54 56 58 59 60 60 60 60 58 55
68 68 59 67 63 52 47 51 45 43 36 38 40 41 42 47 49 41 40 37 36 39 41 42 41 34 40 38 37 37 43 48 53 55 60 62 63 64 63 62 60 58 58
65 67 62 65 62 50 51 53 42 38 35 42 43 43 46 44 46 47 40 38 40 43 39 40 42 42 40 36 46 41 44 48 65 67 68 69 69 66 63 61 58 57 56
70 66 66 62 59 50 55 53 47 39 36 45 50 50 45 41 34 40 46 43 41 46 45 40 41 42 43 43 43 46 57 56 54 69 69 66 63 62 63 62 60 58 57
77 64 64 66 60 55 49 52 45 40 45 43 52 52 51 48 37 33 37 44 47 48 46 44 42 42 42 44 44 47 51 58 55 65 64 60 57 58 61 61 62 60 58
76 69 64 67 63 59 47 45 40 48 53 62 53 57 49 44 42 40 39 32 41 37 35 38 41 44 43 41 44 50 54 51 50 46 63 62 61 60 61 63 64 62 59
74 72 63 65 66 56 46 47 50 61 67 65 65 59 43 36 36 38 39 35 31 29 31 36 41 40 40 41 43 45 47 49 49 59 61 64 64 62 64 66 66 64 60
75 74 73 69 70 60 53 58 56 53 66 72 72 55 38 44 43 37 34 33 34 33 32 34 38 39 39 40 42 44 49 50 46 48 60 63 63 65 68 68 69 67 63
72 83 80 81 74 61 63 71 51 62 73 83 63 49 52 48 43 40 40 39 41 34 31 30 30 33 38 38 41 42 47 46 45 48 51 55 64 70 75 75 74 72 68
79 85 83 78 64 66 76 60 74 72 84 70 57 62 63 53 44 45 46 43 38 45 38 30 29 30 32 36 39 44 46 46 45 47 43 41 61 66 71 73 76 76 73
87 78 76 83 72 78 58 78 80 84 70 60 62 68 62 55 49 44 43 39 39 39 42 34 32 32 34 34 38 43 47 44 45 42 37 39 56 64 68 74 78 78 77
84 73 79 81 77 72 73 75 76 71 62 62 68 72 67 58 50 43 41 41 40 38 40 36 34 34 35 37 38 43 45 43 41 33 33 38 44 43 56 73 79 83 81
90 84 75 82 85 80 77 85 81 65 56 70 77 88 74 55 47 46 45 44 43 44 44 43 39 37 37 37 38 42 42 41 37 34 38 34 35 39 52 59 71 80 81
91 83 81 88 87 81 80 82 71 55 86 81 82 85 61 52 50 47 47 49 50 50 44 44 44 39 37 37 37 36 37 35 37 29 29 32 36 42 46 53 53 63 67
93 91 90 85 86 78 72 61 58 89 83 74 91 78 64 56 52 52 53 54 54 55 54 50 47 42 36 35 35 34 34 31 30 30 35 38 36 39 41 43 45 48 56
92 93 90 84 69 66 62 70 87 87 73 93 90 73 65 62 59 58 57 57 56 56 54 53 49 42 36 36 34 31 32 34 32 35 37 36 38 38 39 38 40 48 66
79 78 73 70 65 66 78 82 80 84 96 99 94 80 74 71 67 63 56 57 60 65 63 56 54 48 40 38 36 35 36 36 35 36 39 43 40 38 37 37 39 44 47
72 73 73 67 66 84 79 84 84 87 96 98 98 100 89 71 56 49 47 46 52 60 65 70 61 60 50 43 40 40 40 38 36 39 46 44 38 38 38 37 44 49 50
72 74 73 70 71 76 85 82 84 97 99 98 98 75 58 53 50 48 49 50 52 59 73 74 62 62 58 49 41 42 44 42 47 48 44 43 38 40 42 44 46 50 59
72 74 74 74 79 87 93 99 100 96 86 72 64 58 55 54 54 52 56 64 61 58 59 64 63 62 58 52 47 49 49 45 58 47 42 41 39 42 43 45 47 72 82
90 88 97 91 91 91 85 84 88 81 76 72 69 65 62 63 63 62 62 69 73 66 63 69 75 68 62 60 56 56 55 57 56 55 45 46 44 43 47 46 49 50 55

GFSMA_925_rhum_036.txt.gz
RH
62 55 60 60 52 53 50 52 52 49 47 44 40 35 36 35 33 54 45 27 40 84 92 88 88 82 77 74 79 74 69 64 63 63 64 64 64 69 67 65 67 66 65
58 58 61 58 55 54 53 52 48 46 43 42 41 34 34 33 35 46 49 43 31 82 88 91 88 83 78 72 70 64 63 64 63 62 62 63 62 64 66 66 66 68 67
56 60 59 56 54 52 51 47 43 41 40 37 36 37 36 34 38 38 57 49 40 58 72 77 78 75 71 69 67 64 61 59 60 61 63 66 71 72 73 73 74 73 66
60 62 61 55 53 52 51 49 45 43 39 35 33 33 33 34 38 39 37 51 58 42 41 45 56 63 63 61 56 53 53 57 60 60 64 64 65 64 65 66 67 67 67
65 66 61 56 55 55 53 46 46 42 39 34 34 35 36 37 39 37 38 38 40 53 50 40 37 35 34 31 31 38 52 55 58 59 59 61 62 65 66 66 65 64 62
69 67 63 58 57 56 52 47 45 42 38 36 34 33 38 40 40 38 39 39 38 39 41 45 42 42 40 36 34 32 38 52 53 56 58 64 66 68 68 67 66 65 63
69 67 66 60 60 58 52 50 47 40 38 36 36 38 37 42 44 42 41 40 37 40 42 43 42 42 42 39 38 45 38 37 53 60 68 70 70 70 68 65 64 63 61
66 67 68 63 65 61 52 50 51 44 40 37 46 48 67 55 50 50 42 40 38 38 40 41 43 42 41 41 46 53 50 55 52 60 68 69 68 65 64 63 64 63 62
67 67 67 66 66 62 54 53 51 43 42 42 47 54 67 67 51 50 47 40 39 41 46 44 40 41 44 44 44 50 53 51 54 55 67 67 64 63 61 62 62 65 63
74 70 67 67 64 62 58 56 53 46 40 46 49 55 53 53 59 58 49 46 43 43 47 48 44 42 42 43 45 46 50 55 57 51 55 65 63 64 64 63 64 65 63
78 80 70 65 66 63 59 56 53 49 43 52 57 57 68 72 51 53 60 46 49 47 47 48 44 44 45 44 42 46 52 55 48 49 54 62 64 66 64 63 64 66 64
71 80 74 67 68 65 65 66 74 55 60 60 60 76 81 79 48 50 59 50 45 41 42 38 40 43 42 41 42 44 46 45 46 46 47 59 64 64 62 64 67 68 66
77 79 75 66 67 71 79 84 76 62 64 67 75 86 80 62 41 46 41 42 44 36 35 35 36 38 40 40 42 43 45 46 46 46 46 52 57 59 60 68 72 72 69
74 72 73 70 69 83 88 83 59 63 58 67 84 90 79 54 51 48 42 44 62 49 41 37 32 35 38 39 40 43 42 47 47 47 46 44 46 54 59 65 69 69 70
73 71 72 74 96 93 85 64 62 67 66 85 86 78 70 59 60 52 45 46 49 71 63 40 37 33 33 33 36 40 41 40 43 47 45 45 40 54 57 61 61 62 71
78 76 75 94 92 86 78 63 69 70 84 81 78 67 65 67 66 60 50 46 46 46 71 44 39 36 34 34 35 36 38 39 45 46 44 42 35 34 44 54 55 64 73
89 87 87 85 82 81 75 74 74 74 86 81 74 78 67 72 72 64 54 45 43 42 49 44 41 39 37 37 37 38 39 44 45 43 41 36 34 36 37 34 39 47 72
92 87 78 79 82 85 88 81 69 85 87 82 81 70 72 82 83 70 59 49 44 45 46 51 47 46 42 40 38 38 38 40 40 40 40 36 33 33 34 37 40 42 47
95 93 84 83 85 94 92 74 81 80 90 86 72 70 76 89 82 74 60 51 50 50 52 54 56 50 46 45 40 38 38 39 36 36 34 32 33 36 38 38 40 42 44
99 95 90 85 88 91 88 83 88 90 87 76 65 78 85 92 76 68 61 59 56 58 61 64 63 62 56 49 44 38 39 36 35 36 32 32 35 38 39 40 39 41 43
93 93 90 89 90 87 88 86 86 78 81 70 78 82 93 83 75 71 66 64 64 67 68 69 69 66 65 55 44 38 38 35 35 36 34 35 40 41 42 40 40 39 42
91 90 89 88 88 82 76 68 72 72 68 89 86 94 95 84 81 79 78 71 66 66 68 67 68 70 67 62 53 42 40 39 49 39 37 37 44 44 44 40 40 45 48
77 78 77 75 73 69 69 67 72 83 89 86 92 98 98 96 87 78 69 58 53 52 52 56 67 69 70 67 64 52 42 40 42 42 40 44 45 47 45 41 43 42 44
74 74 75 75 76 74 72 74 81 86 90 96 91 82 88 83 64 60 62 61 61 60 61 61 63 66 70 66 69 61 50 45 45 44 43 53 49 49 41 40 44 43 51
72 72 71 70 71 84 85 88 96 99 92 85 76 72 73 76 82 84 85 94 95 87 77 69 66 63 64 69 66 65 52 48 50 48 48 47 49 47 45 45 44 46 54
76 73 79 80 82 87 94 95 87 83 85 86 80 76 70 66 71 72 79 88 87 89 97 96 97 84 76 72 62 63 70 53 56 60 50 50 51 50 51 46 49 50 50